Sunshine Coast Airport Observation History
Time Wind Speed Temp Pressure Rel. Hum Rain
26/01:30pm SE 14-19 kts 24.9°c 1009.8 hPa 79% 0.0mm
26/01:09pm SE 14-18 kts 25.1°c 1009.8 hPa 77% 0.0mm
26/01:00pm SE 13-16 kts 25.5°c 1009.7 hPa 77% 0.0mm
26/12:30pm ESE 10-13 kts 25.3°c 1009.7 hPa 75% 0.0mm
26/12:00pm SE 13-18 kts 24.9°c 1010.2 hPa 75% 0.0mm
26/11:30am ENE 11-13 kts 26.4°c 1010.0 hPa 76% 0.0mm
26/11:00am NE 12-15 kts 25.9°c 1010.3 hPa 73% 0.0mm
26/10:30am NE 10-13 kts 25.5°c 1010.9 hPa 76% 0.0mm
26/10:00am NE 10-13 kts 25.2°c 1011.1 hPa 77% 0.0mm
26/09:42am NE 9-12 kts 25.6°c 1011.1 hPa 78% 0.0mm
26/09:30am NE 10-13 kts 24.9°c 1011.3 hPa 76% 0.0mm
26/09:23am NNE 9-11 kts 25.5°c 1011.3 hPa 75% 0.0mm
26/09:00am NW 5-8 kts 26.0°c 1011.3 hPa 70% 22.8mm
26/08:30am NW 6-9 kts 25.4°c 1011.4 hPa 72% 22.8mm
26/08:00am NW 7-9 kts 24.7°c 1011.5 hPa 76% 22.8mm
26/07:30am NW 5-7 kts 23.4°c 1011.6 hPa 83% 22.8mm
26/07:00am NNW 4-6 kts 22.1°c 1011.2 hPa 87% 22.8mm
26/06:30am NNW 5-6 kts 21.3°c 1010.9 hPa 93% 22.8mm
26/06:00am CALM 0-3 kts 20.6°c 1010.5 hPa 94% 22.8mm
26/05:30am NNW 4-5 kts 20.2°c 1010.4 hPa 93% 22.8mm
26/05:00am NW 6-8 kts 20.2°c 1009.9 hPa 94% 22.8mm
26/04:30am NNW 5-7 kts 19.7°c 1009.9 hPa 94% 22.6mm
26/04:00am W 3-4 kts 19.4°c 1009.8 hPa 94% 22.6mm
26/03:30am CALM 0-3 kts 19.2°c 1009.5 hPa 94% 22.6mm
26/03:00am CALM 0 kts 19.3°c 1009.6 hPa 95% 22.6mm
26/02:30am NNW 3-5 kts 19.4°c 1009.4 hPa 94% 22.6mm
26/02:00am NW 7-8 kts 19.9°c 1009.1 hPa 94% 22.6mm
26/01:30am NNW 9-11 kts 20.2°c 1009.0 hPa 93% 22.6mm
26/01:00am WNW 9-12 kts 20.5°c 1009.5 hPa 92% 22.6mm
26/12:30am NW 9-13 kts 20.4°c 1009.8 hPa 91% 22.6mm
26/12:00am N 10-14 kts 20.6°c 1009.9 hPa 88% 22.6mm
Time Wind Speed Temp Pressure Rel. Hum Rain
25/11:30pm N 11-16 kts 21.1°c 1010.7 hPa 92% 22.6mm
25/11:25pm N 11-16 kts 21.1°c 1010.7 hPa 92% 22.6mm
25/11:03pm NNW 9-15 kts 21.0°c 1011.4 hPa 94% 21.0mm
25/11:00pm NNW 7-11 kts 21.0°c 1011.5 hPa 94% 18.6mm
25/10:53pm NNW 7-10 kts 21.1°c 1011.2 hPa 94% 17.0mm
25/10:30pm NNW 7-9 kts 21.0°c 1011.1 hPa 94% 16.6mm
25/10:00pm N 4-6 kts 20.7°c 1011.0 hPa 94% 16.6mm
25/09:30pm N 5-6 kts 20.4°c 1010.9 hPa 94% 16.6mm
25/09:00pm NW 5-7 kts 20.5°c 1011.2 hPa 94% 16.6mm
25/08:30pm N 4-6 kts 20.5°c 1010.9 hPa 93% 16.6mm
25/08:00pm NNW 6-8 kts 20.4°c 1011.0 hPa 93% 16.6mm
25/07:30pm NNW 5-7 kts 20.4°c 1010.8 hPa 92% 16.6mm
25/07:00pm NNW 5-8 kts 20.5°c 1010.6 hPa 92% 16.6mm
25/06:30pm WSW 3-4 kts 21.1°c 1010.2 hPa 92% 16.6mm
25/06:00pm NW 4-6 kts 21.1°c 1009.9 hPa 90% 16.6mm
25/05:30pm NNW 5-7 kts 21.3°c 1010.0 hPa 88% 16.6mm
25/05:00pm NNW 6-9 kts 21.7°c 1009.8 hPa 89% 16.6mm
25/04:30pm N 9-13 kts 21.8°c 1009.5 hPa 86% 16.6mm
25/04:00pm NNE 12-17 kts 21.9°c 1009.0 hPa 90% 16.6mm
25/03:30pm NNW 4-5 kts 21.6°c 1009.2 hPa 92% 16.6mm
25/03:00pm NNE 9-12 kts 21.1°c 1009.4 hPa 91% 16.0mm
25/02:54pm NNE 9-13 kts 20.8°c 1009.3 hPa 91% 16.0mm
25/02:34pm N 11-17 kts 20.8°c 1009.8 hPa 88% 15.4mm
25/02:32pm N 12-17 kts 20.9°c 1010.0 hPa 89% 15.4mm
25/02:30pm N 13-18 kts 21.0°c 1009.9 hPa 89% 15.4mm
25/02:22pm NNE 15-21 kts 21.3°c 1009.4 hPa 92% 15.4mm
25/02:06pm NNE 21-31 kts 20.1°c 1009.5 hPa 92% 12.4mm
25/02:00pm NNE 24-31 kts 19.7°c 1009.6 hPa 91% 9.6mm
25/01:47pm N 23-32 kts 20.8°c 1008.8 hPa 83% 1.8mm
25/01:40pm N 18-30 kts 23.6°c 1008.4 hPa 70% 0.2mm
25/01:30pm NNE 18-23 kts 25.2°c 1008.5 hPa 75% 0.2mm
25/01:29pm NNE 18-23 kts 25.4°c 1008.5 hPa 76% 0.2mm
25/01:00pm NNE 15-17 kts 25.2°c 1009.0 hPa 80% 0.2mm
25/12:30pm NE 15-18 kts 25.5°c 1009.3 hPa 77% 0.2mm
25/12:00pm NNE 17-20 kts 25.6°c 1009.8 hPa 77% 0.2mm
25/11:30am NE 15-18 kts 26.0°c 1010.2 hPa 77% 0.2mm
25/11:00am NNE 16-20 kts 26.5°c 1010.4 hPa 79% 0.2mm
25/10:30am NNW 9-14 kts 28.0°c 1010.6 hPa 63% 0.2mm
25/10:00am N 12-15 kts 27.3°c 1011.0 hPa 69% 0.2mm
25/09:30am N 9-13 kts 26.3°c 1011.4 hPa 73% 0.2mm
25/09:00am NNW 9-12 kts 24.9°c 1011.6 hPa 78% 16.2mm
25/08:30am N 9-11 kts 23.8°c 1011.7 hPa 85% 16.2mm
25/08:00am NNW 7-11 kts 23.6°c 1011.6 hPa 84% 16.2mm
25/07:30am NNW 7-10 kts 22.6°c 1011.5 hPa 89% 16.2mm
25/07:00am N 5-7 kts 22.2°c 1011.4 hPa 92% 16.2mm
25/06:30am NNW 7-10 kts 21.6°c 1011.2 hPa 92% 16.2mm
25/06:00am NNW 9-11 kts 21.4°c 1010.9 hPa 92% 16.2mm
25/05:30am N 9-12 kts 21.0°c 1010.6 hPa 94% 16.2mm
25/05:00am N 9-13 kts 20.7°c 1010.2 hPa 94% 16.2mm
25/04:30am N 7-9 kts 20.5°c 1010.2 hPa 94% 16.2mm
25/04:00am NNW 7-10 kts 20.5°c 1009.9 hPa 95% 16.2mm
25/03:30am NW 6-8 kts 20.3°c 1010.0 hPa 95% 16.2mm
25/03:00am N 6-9 kts 20.7°c 1009.6 hPa 94% 16.2mm
25/02:30am N 9-13 kts 20.7°c 1009.5 hPa 95% 16.2mm
25/02:00am NNW 7-9 kts 19.9°c 1009.6 hPa 95% 16.2mm
25/01:30am NNW 9-11 kts 19.7°c 1010.3 hPa 95% 16.2mm
25/01:00am NW 9-11 kts 19.4°c 1010.2 hPa 96% 16.2mm
25/12:30am NNW 5-7 kts 19.1°c 1010.1 hPa 95% 16.2mm
25/12:00am NNW 5-6 kts 19.0°c 1010.7 hPa 95% 16.2mm
Time Wind Speed Temp Pressure Rel. Hum Rain
24/11:30pm NNW 8-11 kts 19.4°c 1010.5 hPa 96% 16.2mm
24/11:00pm NNW 6-7 kts 18.7°c 1010.9 hPa 95% 16.2mm
24/10:30pm WNW 4-5 kts 18.1°c 1011.2 hPa 95% 16.2mm
24/10:00pm NNW 5-8 kts 18.4°c 1011.1 hPa 95% 16.2mm
24/09:30pm NW 5-6 kts 18.6°c 1011.4 hPa 95% 16.2mm
24/09:00pm NW 7-8 kts 18.9°c 1011.3 hPa 94% 16.2mm
24/08:30pm N 7-9 kts 19.2°c 1011.2 hPa 94% 16.0mm
24/08:00pm NNW 6-7 kts 19.0°c 1011.4 hPa 94% 16.0mm
24/07:30pm NNW 5-7 kts 19.2°c 1011.1 hPa 94% 16.0mm
24/07:00pm NNE 10-13 kts 19.1°c 1011.0 hPa 94% 16.0mm
24/06:30pm SW 5-7 kts 19.4°c 1010.5 hPa 93% 16.0mm
24/06:00pm N 3-5 kts 19.2°c 1011.1 hPa 93% 16.0mm
24/05:30pm NNW 8-13 kts 19.1°c 1011.5 hPa 93% 15.6mm
24/05:00pm NNW 7-11 kts 19.4°c 1011.5 hPa 94% 12.6mm
24/04:30pm NW 10-18 kts 19.4°c 1011.1 hPa 92% 7.2mm
24/04:24pm W 6-14 kts 19.7°c 1010.9 hPa 89% 1.8mm
24/04:13pm WSW 12-18 kts 20.0°c 1010.9 hPa 86% 0.0mm
24/04:08pm WSW 11-18 kts 20.5°c 1010.7 hPa 82% 0.0mm
24/04:00pm SW 7-10 kts 21.8°c 1010.7 hPa 79% 0.0mm
24/03:55pm SW 10-15 kts 21.7°c 1010.2 hPa 78% 0.0mm
24/03:49pm SW 12-16 kts 21.8°c 1010.3 hPa 78% 0.0mm
24/03:30pm N 10-15 kts 23.8°c 1009.8 hPa 82% 0.0mm
24/03:00pm NNE 12-15 kts 23.2°c 1009.5 hPa 87% 0.0mm
24/02:30pm NNE 13-16 kts 23.6°c 1009.7 hPa 85% 0.0mm
24/02:00pm NNE 15-19 kts 23.5°c 1010.3 hPa 86% 0.0mm
24/01:30pm NNE 15-19 kts 24.2°c 1010.7 hPa 78% 0.0mm
24/01:00pm NNE 15-19 kts 24.6°c 1011.3 hPa 77% 0.0mm
24/12:30pm NNE 14-20 kts 23.6°c 1011.7 hPa 79% 0.0mm
24/12:23pm N 13-19 kts 24.6°c 1011.8 hPa 80% 0.0mm
24/12:00pm NNE 16-21 kts 23.4°c 1012.1 hPa 81% 0.0mm
24/11:30am NNE 16-21 kts 23.9°c 1012.4 hPa 78% 0.0mm
24/11:00am NNE 14-18 kts 24.2°c 1012.7 hPa 77% 0.0mm
24/10:30am N 13-19 kts 23.7°c 1013.1 hPa 77% 0.0mm
24/10:00am NNE 15-20 kts 24.2°c 1013.2 hPa 75% 0.0mm
24/09:30am NNE 15-19 kts 24.0°c 1013.6 hPa 76% 0.0mm
24/09:00am N 10-13 kts 24.4°c 1013.8 hPa 72% 0.0mm
24/08:30am N 8-11 kts 25.3°c 1013.8 hPa 72% 0.0mm
24/08:00am N 12-18 kts 23.8°c 1013.9 hPa 72% 0.0mm
24/07:30am N 12-16 kts 24.2°c 1013.7 hPa 71% 0.0mm
24/07:00am N 11-15 kts 23.5°c 1014.1 hPa 75% 0.0mm
24/06:30am N 9-14 kts 21.8°c 1014.1 hPa 81% 0.0mm
24/06:00am NNW 8-10 kts 20.7°c 1013.9 hPa 85% 0.0mm
24/05:30am NNW 7-10 kts 20.2°c 1013.4 hPa 87% 0.0mm
24/05:00am NNW 7-10 kts 19.8°c 1013.2 hPa 88% 0.0mm
24/04:30am NNW 7-9 kts 19.9°c 1013.4 hPa 88% 0.0mm
24/04:00am NNW 9-11 kts 20.1°c 1012.9 hPa 88% 0.0mm
24/03:30am NNW 6-8 kts 20.0°c 1012.5 hPa 89% 0.0mm
24/03:00am NNW 7-8 kts 20.0°c 1012.6 hPa 89% 0.0mm
24/02:30am NNW 7-9 kts 19.9°c 1012.7 hPa 90% 0.0mm
24/02:00am NNW 5-7 kts 19.9°c 1012.6 hPa 91% 0.0mm
24/01:30am NW 7-8 kts 19.9°c 1013.1 hPa 90% 0.0mm
24/01:00am NW 8-9 kts 20.1°c 1013.4 hPa 90% 0.0mm
24/12:30am NNW 6-8 kts 20.4°c 1013.2 hPa 87% 0.0mm
24/12:00am NNW 7-10 kts 21.0°c 1013.6 hPa 85% 0.0mm